Location: Dolosha
(42.1221°N, 44.8439°E)
Time: 10:44:43
(UTC+00:00)

Daily predictions for brighter satellites

Satellite Brightness Start Highest point End
(mag) Time Altitude Azimuth Time Altitude Azimuth Time Altitude Azimuth
Cosmos 1892 2.9 16:11:42 10° N 16:15:23 49° E 16:19:04 10° SSE
MetOp-A 4.4 16:11:09 10° SSE 16:16:20 53° ENE 16:21:32 10° N
Cosmos 1408 3.1 16:13:32 10° N 16:16:52 36° ENE 16:20:11 10° SSE
Cosmos 2333 Rocket 2.4 16:11:26 10° NNW 16:17:07 58° ENE 16:22:45 10° SE
SJ-6B 3.6 16:14:47 10° SE 16:18:06 31° ENE 16:21:27 10° N
Cosmos 2058 Rocket 3.4 16:15:59 10° SSE 16:20:05 42° E 16:24:12 10° NNE
ARGOS 3.9 16:16:06 10° S 16:21:23 57° W 16:26:42 10° NNW
Cosmos 1825 3.2 16:19:35 10° NNE 16:22:51 27° ENE 16:26:05 10° SE
DMSP B5D2-2 4.1 16:17:47 10° NNE 16:23:03 74° ESE 16:28:18 10° S
Cosmos 1953 Rocket 3.5 16:19:47 10° N 16:24:08 66° E 16:28:25 10° SSE
SL-08 RB Rocket 4.1 16:19:36 10° S 16:24:14 69° WSW 16:28:52 10° NNW
Cosmos 2322 3.7 16:20:33 10° NNW 16:26:13 71° ENE 16:31:50 10° SSE
Cosmos 1818 3.7 16:21:38 10° SSW 16:26:53 53° ESE 16:32:12 10° NE
SME Rocket 3.3 16:23:11 10° NNE 16:27:11 90° NNW 16:32:33 10° SSW
Cosmos 1092 Rocket 4.1 16:21:49 10° N 16:27:58 57° E 16:34:02 10° SSE
H-2A R/B 4.0 16:25:48 10° SSW 16:30:09 29° W 16:34:28 10° NW
CSL-04 Rocket 4.0 16:29:30 10° S 16:34:45 68° WSW 16:40:02 10° NNW
CZ-2C R/B 3.7 16:31:55 10° N 16:36:56 50° WNW 16:42:00 10° SW
Cosmos 1825 Rocket 4.5 16:35:37 10° NNW 16:39:53 52° W 16:44:11 10° S
CZ-4 R/B 4.2 16:37:00 10° SW 16:40:14 21° W 16:43:29 10° NW
SL-16 R/B 4.3 16:41:17 10° NNE 16:43:03 11° NE 16:44:48 10° ENE
FALCON 9 DEB 4.3 16:41:57 10° S 16:44:04 17° SE 16:44:20 17° ESE
USA 186 2.0 16:43:31 10° S 16:46:43 70° W 16:49:49 10° NNW
Resurs 01 Rocket 2.9 16:44:20 14° ESE 16:47:05 25° ENE 16:50:44 10° NNE
Cosmos 2360 Rocket 3.6 16:42:02 10° NW 16:47:12 37° WSW 16:52:19 10° S
OBJECT-B 0.7 16:44:01 10° SSE 16:47:13 70° ENE 16:50:27 10° N
Meteor 2-1 Rocket 4.4 16:42:22 10° S 16:48:02 58° E 16:53:51 10° NNE
SL-4 R/B 3.2 16:48:11 10° S 16:51:38 24° SE 16:55:02 11° E
ATLAS 2AS CENTAUR R/B 3.7 16:44:01 10° SW 16:51:49 60° NW 16:59:31 10° NNE
Resurs 1-3 3.9 16:50:08 13° SE 16:53:48 48° ENE 16:58:02 10° N
Cosmos 1428 Rocket 4.5 16:47:44 10° N 16:54:01 72° E 17:00:17 10° SSE
Cosmos 1633 4.2 16:55:33 10° NNE 16:57:59 17° ENE 16:58:29 17° E
COSMOS 2428 2.7 16:52:18 10° NNW 16:58:05 85° ENE 17:03:18 13° SSE
ERS-2 4.0 16:55:03 10° N 16:58:24 34° WNW 17:01:42 10° SW
Cosmos 2279 Rocket 4.2 16:53:08 10° SSE 16:59:02 50° E 17:05:00 10° NNE
Cosmos 2219 Rocket 2.4 16:57:25 10° NNW 17:03:06 74° WSW 17:08:39 10° SSE
RESURS DK-1 3.2 17:00:14 10° SW 17:04:16 55° WNW 17:08:21 10° NNE
Cosmos 2026 Rocket 4.0 17:02:45 10° N 17:08:52 88° W 17:15:01 10° S
Cosmos 1455 3.1 17:05:58 10° SSW 17:09:36 49° W 17:13:14 10° N
Cosmos 44 4.1 17:05:53 10° SW 17:10:53 59° NW 17:16:12 10° NNE
Abrixas rocket 2.7 17:09:25 10° W 17:11:01 26° NNW 17:11:28 23° N
Cosmos 2251 Rocket 3.8 17:07:37 10° SSW 17:12:58 75° WNW 17:18:20 10° NNE
Ariane Rocket 3.0 17:12:39 12° SSE 17:17:22 82° WSW 17:22:27 10° NNW
Cosmos 389 Rocket 2.3 17:17:51 17° S 17:20:25 74° E 17:23:58 10° NNE
Exosat Rocket 3.8 17:16:52 10° NNW 17:23:02 78° WSW 17:26:36 20° SSE
Cosmos 192 4.4 17:18:25 10° NNW 17:23:20 61° ENE 17:25:38 30° SE
Cosmos 2058 3.5 17:19:45 10° NNW 17:23:53 58° W 17:27:32 13° S
SPOT 3 Rocket 3.7 17:21:13 26° SE 17:24:05 59° ENE 17:29:11 10° N
Cosmos 1634 Rocket 4.5 17:20:09 10° SSW 17:26:22 63° W 17:32:35 10° N
SL-8 R/B 3.7 17:25:15 10° WNW 17:30:04 72° SSW 17:31:59 36° SE
ATLAS 3B R/B 2.9 17:23:07 10° NW 17:30:11 75° WSW 17:35:08 23° SSE
Cosmos 614 Rocket 4.2 17:25:17 10° SSW 17:30:24 72° WNW 17:35:32 10° NNE
MetOp-B 4.4 17:28:40 30° SE 17:31:01 52° ENE 17:36:13 10° N
Cosmos 2237 Rocket 2.3 17:27:20 10° NNW 17:32:55 61° ENE 17:35:20 33° SE
USA 215 3.9 17:28:59 19° E 17:33:17 45° NNE 17:39:26 10° NW
Cosmos 405 Rocket 2.9 17:30:48 10° NNW 17:34:47 71° W 17:36:40 29° S
Cosmos-2242 3.3 17:35:49 41° ESE 17:36:15 43° E 17:40:21 10° NNE
CZ-2C R/B 3.6 17:36:08 10° NNE 17:40:32 59° E 17:41:47 41° SSE
ARIANE 5 R/B 3.5 17:40:24 31° ENE 17:40:43 31° ENE 17:44:37 10° N
Timation 2 Rocket 4.0 17:35:03 10° S 17:41:32 59° ESE 17:47:46 10° NNE
Cosmos 2227 Rocket 2.1 17:40:25 11° S 17:45:48 60° ESE 17:51:23 10° NNE
Lacrosse 5 rocket 4.3 17:44:56 10° NNW 17:46:03 11° N 17:47:12 10° NNE
USA 245 3.7 17:49:21 42° NE 17:49:21 42° NE 17:52:11 10° N
Cosmos 2151 2.9 17:44:48 10° N 17:49:07 70° E 17:49:47 58° SE
Cosmos 2180 Rocket 4.5 17:44:30 10° S 17:50:41 84° W 17:56:51 10° N
Cosmos 2297 Rocket 2.1 17:47:13 10° SSW 17:52:51 88° ESE 17:58:32 10° NNE
BREEZE-M (TANK) 3.8 17:36:03 10° WNW 17:54:04 80° SW 17:55:53 43° SE
ERS-1 Rocket 3.8 17:54:18 32° ENE 17:54:41 32° ENE 17:59:07 10° N
COSMOS 2455 3.1 17:56:48 42° ESE 17:56:48 42° ESE 18:02:24 10° NE
SPOT 5 3.8 17:58:23 31° ENE 17:58:23 31° ENE 18:02:27 10° N
Terra 3.2 17:58:40 23° ENE 17:58:40 23° ENE 18:02:16 10° NNE
Cosmos 2219 3.1 17:53:01 10° SSW 17:58:38 89° ESE 18:04:17 10° NNE
Cosmos 1076 Rocket 4.4 17:54:34 10° NNW 17:58:44 47° W 18:00:39 28° SSW
Cosmos 407 Rocket 3.6 17:55:11 10° SSW 18:00:18 73° WNW 18:05:29 10° NNE
Cosmos 2333 Rocket 4.4 17:56:44 10° NW 18:00:53 21° W 18:05:01 10° SSW
Cosmos 1655 Rocket 3.9 17:57:54 10° N 18:04:13 89° W 18:06:49 38° S
NOSS 0 Rocket 4.5 17:58:41 10° NW 18:04:42 53° WSW 18:07:44 29° S
IGS 5A 3.9 18:04:34 44° SSW 18:05:29 55° W 18:09:35 10° NNW
TRAILBLAZER 4.5 18:06:16 10° NNW 18:10:58 90° SW 18:11:15 79° SSE
Timation 1 Rocket 4.3 18:12:00 55° SE 18:12:24 56° ESE 18:18:14 10° NNE
Cosmos 1954 Rocket 3.8 18:16:23 71° SE 18:16:33 72° ESE 18:21:43 10° NNE
Genesis I 3.7 18:13:10 10° NNW 18:16:34 58° N 18:16:34 58° N
Cosmos 1140 Rocket 4.0 18:14:27 10° SW 18:19:29 56° WNW 18:24:32 10° NNE
CARTOSAT-1 3.8 18:23:15 64° NNE 18:23:15 64° NNE 18:27:02 10° N
Resurs 01 Rocket 3.1 18:21:54 25° SW 18:23:26 31° W 18:27:24 10° NNW
Cosmos 1766 Rocket 4.0 18:20:37 10° N 18:24:08 54° NNE 18:24:08 54° NNE
Okean 3 Rocket 3.9 18:22:29 10° N 18:26:22 61° NNE 18:26:22 61° NNE
Spot 2 Rocket 3.4 18:26:38 75° SSW 18:27:02 83° WSW 18:32:09 10° NNW
SL-16 R/B 2.3 18:22:46 10° NNW 18:28:25 60° ENE 18:28:42 59° ENE
Cosmos 1980 4.5 18:23:08 10° NW 18:28:31 45° WSW 18:30:00 37° SW
SL-4 R/B 2.5 18:26:32 10° WSW 18:30:51 67° NW 18:30:51 67° NW
Cosmos 1633 4.4 18:29:42 10° NNW 18:32:34 26° W 18:32:34 26° W
BREEZE-M DEB (TANK) 4.1 18:23:47 10° WNW 18:32:57 46° N 18:33:42 41° NE
Cosmos 468 Rocket 4.4 18:43:12 10° NNW 18:47:29 52° NNE 18:47:29 52° NNE
Cosmos 44 Rocket 4.1 18:59:16 50° NNE 18:59:16 50° NNE 19:03:11 10° NNE
Cosmos 1763 Rocket 4.0 18:59:38 10° NNW 19:03:33 53° N 19:03:33 53° N
NOSS 3-1 (C) 4.2 19:04:33 10° NNW 19:12:04 64° NE 19:13:23 57° E
USA 215 3.3 19:16:19 64° SW 19:16:19 64° SW 19:22:37 10° NW
Cosmos 2237 Rocket 4.1 19:12:36 10° WNW 19:16:25 19° W 19:17:10 19° WSW
Cosmos 540 Rocket 4.5 19:13:35 10° NNW 19:17:07 40° NNE 19:17:07 40° NNE
Cosmos 1745 Rocket 4.4 19:12:37 10° N 19:17:57 52° NE 19:17:57 52° NE
Cosmos 2263 Rocket 3.5 19:27:13 30° NE 19:27:13 30° NE 19:30:01 10° NNE
Lacrosse 5 rocket 3.9 19:23:39 10° NNW 19:26:28 18° NNE 19:26:28 18° NNE
S3M 4.4 19:30:12 58° NE 19:30:12 58° NE 19:35:23 10° NNE
Cosmos 2227 Rocket 4.4 19:25:54 10° WSW 19:30:17 23° NW 19:34:42 10° N
Terra 3.4 19:37:32 30° WNW 19:37:32 30° WNW 19:40:29 10° NNW
COSMOS 2455 4.2 19:39:46 22° W 19:42:46 35° NW 19:48:17 10° NNE
SeaSat 1 4.1 19:55:42 10° NNE 19:58:11 30° NNE 19:58:11 30° NNE
SL-16 R/B 4.3 20:08:03 10° NW 20:10:35 18° W 20:10:35 18° W
USA 229 DEB 4.1 20:12:47 10° NW 20:19:05 67° NW 20:19:05 67° NW
USA 229 4.1 20:12:52 10° NW 20:19:12 68° NW 20:19:12 68° NW
NOSS 3-1 (A) 4.3 20:30:28 10° NW 20:37:03 64° WNW 20:37:03 64° WNW
Cosmos 2263 Rocket 4.1 21:08:52 21° NW 21:08:54 21° NW 21:13:03 10° N
Cosmos 1844 Rocket 4.0 21:23:40 36° N 21:23:40 36° N 21:26:58 10° NNE
Resurs 1-4 Rocket 4.1 21:36:23 10° NE 21:38:56 20° ENE 21:38:56 20° ENE
Cosmos 1833 Rocket 4.1 21:43:01 10° N 21:48:05 32° NE 21:48:07 32° ENE
USA 281 3.7 21:51:15 51° NW 21:51:15 51° NW 21:56:03 10° NNW
SL-16 R/B 3.7 21:49:07 33° E 21:49:59 35° ENE 21:55:33 10° N
CZ-2D R/B 3.7 21:50:04 10° NNE 21:53:35 28° ENE 21:53:35 28° ENE
Cosmos 2278 Rocket 3.4 22:06:20 37° ENE 22:06:20 37° ENE 22:10:06 10° NE
ADEOS II 4.0 22:09:38 10° NE 22:13:09 21° E 22:13:09 21° E
Gbstr 26 Del rocket 4.3 22:21:46 57° NNE 22:21:46 57° NNE 22:26:15 10° NE
ATLAS 5 CENTAUR R/B 2.9 22:19:08 10° NNW 22:24:40 54° NE 22:25:35 50° E
NOSS 3-3 (A) 4.2 22:27:28 60° ENE 22:27:28 60° ENE 22:32:49 10° NE
NOSS 3-3 (C) 4.2 22:27:35 60° ENE 22:27:35 60° ENE 22:32:55 10° NE
COSMOS 2406 3.8 22:21:42 10° NNW 22:26:15 53° N 22:26:15 53° N
Cosmos 1238 Rocket 4.1 22:25:55 10° N 22:31:39 72° NNW 22:31:39 72° NNW
BREEZE-M DEB (TANK) 4.3 22:24:10 10° WNW 22:33:06 48° N 22:33:06 48° N
NPP 4.3 22:30:14 10° NNE 22:34:40 52° ENE 22:34:40 52° ENE
Cosmos 2181 Rocket 4.2 22:36:44 66° NNW 22:36:44 66° NNW 22:42:15 10° N
SL-8 Rocket 4.3 22:39:10 10° NNW 22:44:19 55° NW 22:44:19 55° NW
SJ 16-02 3.0 22:48:16 31° N 22:48:16 31° N 22:50:43 10° NNE
ADEOS Rocket 4.5 22:47:38 12° SE 22:52:58 38° ENE 22:59:22 10° N
Okean 1-7 4.4 22:56:17 35° NE 22:56:17 35° NE 22:59:13 10° NNE
DELTA 2 R/B (1) 4.4 23:01:50 41° ESE 23:01:50 41° ESE 23:05:32 10° E
Meteor 1-19 Rocket 4.5 23:04:06 59° NW 23:04:06 59° NW 23:08:53 10° N
Cosmos 1680 Rocket 3.9 23:00:46 10° NNW 23:06:02 62° ENE 23:06:34 59° E
SL-19 R/B 4.3 23:03:55 10° NNE 23:10:04 77° WNW 23:10:13 77° W
USA 234 3.1 23:07:04 10° NE 23:13:37 73° SE 23:14:33 64° S
Meteor 2-4 Rocket 3.7 23:14:17 82° SSW 23:14:34 89° W 23:20:31 10° N
Resurs 1-4 Rocket 2.7 23:15:34 10° N 23:20:01 43° NW 23:20:01 43° NW
Cosmos 2082 Rocket 2.0 23:20:22 10° NNW 23:26:01 85° WSW 23:26:30 75° S
CZ-4C R/B 3.0 23:21:39 10° NW 23:29:05 87° NE 23:37:36 10° SE
Cosmos 2242 Rocket 4.2 23:31:18 49° NNW 23:31:18 49° NNW 23:34:44 10° N
Cosmos 1833 Rocket 3.9 23:26:51 10° NW 23:29:46 27° WNW 23:29:46 27° WNW
Cosmos 990 Rocket 4.1 23:32:28 61° WNW 23:32:28 61° WNW 23:37:36 10° NNE
SL-4 R/B 2.8 23:29:52 26° NW 23:32:28 63° NNE 23:37:13 10° ESE
SL-16 R/B 3.1 23:34:12 39° W 23:34:12 39° W 23:39:20 10° NNW
CZ-2D R/B 3.0 23:30:01 10° N 23:34:55 36° WNW 23:34:55 36° WNW
Cosmos 1821 Rocket 4.0 23:33:23 10° NNW 23:39:41 67° W 23:41:02 53° SSW
Helios 1B rocket 4.4 23:36:39 10° NNW 23:38:34 19° NW 23:38:34 19° NW
Cosmos 1356 Rocket 4.4 23:40:27 10° N 23:44:25 44° ENE 23:46:26 25° SE
Cosmos 1937 Rocket 3.3 23:45:19 69° SW 23:45:54 79° WNW 23:51:04 10° NNE
Meteor 1-28 Rocket 4.1 23:48:56 41° NNW 23:48:56 41° NNW 23:51:26 10° NNW
Cosmos 2278 Rocket 3.4 23:48:10 26° WNW 23:48:59 27° NW 23:53:46 10° N
Cosmos 858 Rocket 4.3 23:48:22 64° SW 23:49:06 78° WNW 23:54:19 10° NNE
Cosmos 1943 Rocket 2.5 23:47:40 40° S 23:49:33 62° ESE 23:55:08 10° NNE
Cosmos 1898 Rocket 3.7 23:51:38 49° W 23:52:10 51° WNW 23:57:19 10° N
ARIANE 5 R/B 3.2 23:47:51 10° NNE 23:52:59 52° E 23:55:38 27° SSE
ADEOS II 2.3 23:48:25 10° N 23:53:29 50° WNW 23:54:06 47° W
ARGOS Delta rocket 3.9 23:50:35 10° N 23:54:43 51° WNW 23:54:43 51° WNW
Cosmos 2084 3.5 23:55:29 62° NW 23:55:31 62° NW 23:59:45 10° NNE
